Overview Statistics Trail Chart Weather Telemetry Raw packets
 

This is the latest recevied weather packets stored in our database for station/object KJ5FA-9. If no packets are shown the sender has not sent any weather packets the latest 10 day(s).

<< 12 13 14 15 16 17 18 >>
Time Temp. Humidity Pressure Rain* Wind** Luminosity Snow
1788008128 20.56° C 87% 1021.1 hPa 0 mm - - -
1788006628 19.44° C 92% 1021.1 hPa 0 mm - - -
1788005128 19.44° C 92% 1021 hPa 0 mm - - -
1788003628 19.44° C 93% 1020.6 hPa 0 mm - - -
1788002139 19.44° C 94% 1020.5 hPa 0 mm - - -
1788000630 19.44° C 94% 1020.3 hPa 0 mm - - -
1787999138 20° C 94% 1020.1 hPa 0 mm - - -
1787997629 20° C 93% 1020 hPa 0 mm - - -
1787996128 20° C 94% 1019.8 hPa 0 mm - - -
1787994630 20.56° C 93% 1019.9 hPa 0 mm - - -
1787993128 20.56° C 92% 1020 hPa 0 mm - - -
1787991630 20.56° C 91% 1019.5 hPa 0 mm - - -
1787990151 21.11° C 89% 1019.7 hPa 0 mm - - -
1787988641 21.67° C 87% 1019.5 hPa 0 mm - - -
1787987129 22.22° C 83% 1019.7 hPa 0 mm - - -
1787985628 22.22° C 80% 1019.8 hPa 0 mm - - -
1787984131 23.33° C 78% 1019.7 hPa 0 mm - - -
1787982628 23.33° C 77% 1019.8 hPa 0 mm - - -
1787981147 23.89° C 80% 1019.7 hPa 0 mm - - -
1787979631 23.89° C 76% 1019.7 hPa 0 mm - - -
1787978158 24.44° C 78% 1019.7 hPa 0 mm - - -
1787976628 24.44° C 73% 1019.3 hPa 0 mm - - -
1787975130 24.44° C 75% 1019.3 hPa 0 mm - - -
1787973628 25° C 75% 1019.3 hPa 0 mm - - -
1787972150 25° C 74% 1018.8 hPa 0 mm - - -

* Rain latest hour (hover to see other rain measurements)
** Current wind speed in m/s (hover to see current wind gust speed)